Wind_Speed
43 44 46 47 48 49 50 50 50 50 51 52 51 51 50 50 50 52 48 47 36 39 45 42 39 34 32 32 31 31 28 26 22 19 19 16 14 19 21 23 22 19 17 14
37 37 38 39 41 43 44 43 40 37 35 35 35 38 38 30 38 39 42 46 34 33 41 29 32 36 35 34 33 33 31 27 24 21 22 20 17 19 16 21 22 21 19 18
21 21 24 26 28 28 25 23 23 23 26 23 22 11 6 6 13 18 19 30 44 47 16 44 47 38 37 37 39 38 35 29 27 23 27 25 17 21 18 17 18 21 20 19
8 10 14 16 18 17 15 17 17 16 15 12 9 14 16 13 11 11 12 20 25 42 56 46 45 38 37 39 42 40 39 38 31 25 30 31 22 24 26 18 17 23 20 21
13 13 11 6 6 7 9 12 11 11 9 9 4 13 22 18 13 14 23 18 20 20 33 30 37 26 25 28 24 32 35 35 30 29 34 32 27 24 23 18 18 25 25 21
11 12 13 15 14 9 6 9 9 8 8 5 6 17 22 25 26 32 32 31 32 17 27 20 23 20 37 27 18 38 23 28 30 31 34 34 30 29 22 17 24 29 32 27
10 11 12 14 14 16 17 12 8 7 2 7 5 25 21 22 26 32 36 39 23 11 17 26 21 20 21 34 46 46 38 32 31 33 40 33 33 30 32 35 32 33 29 26
10 13 15 15 13 13 14 15 17 14 5 9 6 6 4 12 18 25 27 20 7 6 11 21 41 29 46 41 44 39 46 34 35 33 35 34 34 33 33 34 37 31 26 25
10 13 14 15 15 11 12 13 13 14 15 3 3 4 14 22 19 24 20 6 8 7 9 16 40 49 41 20 33 48 32 37 29 29 30 36 40 38 35 34 26 25 25 22
11 13 15 18 18 16 14 13 13 13 12 13 8 6 12 13 11 19 19 16 12 13 15 12 31 57 54 45 32 29 32 32 26 29 23 27 38 40 42 36 36 32 29 22
12 15 16 19 21 19 16 14 15 13 11 9 6 10 11 18 26 26 17 14 17 15 20 20 21 35 45 38 32 27 30 32 29 28 25 21 30 37 39 38 35 31 29 25
14 17 20 20 20 21 23 22 17 13 15 14 7 4 7 19 30 22 21 21 22 19 18 28 20 26 34 39 38 33 35 24 32 32 28 27 24 30 34 35 34 36 31 27
18 19 23 24 24 25 26 27 23 21 19 17 17 6 8 21 37 28 25 22 24 28 28 34 34 28 34 36 38 31 41 30 34 34 27 28 20 24 34 34 34 30 31 30
22 24 26 28 28 30 33 29 27 26 25 24 22 7 18 19 25 29 26 34 29 29 36 33 45 30 32 40 37 35 39 39 28 31 30 30 27 23 25 29 34 33 30 34
28 29 31 33 33 34 33 32 30 29 29 27 30 19 14 21 22 23 30 34 28 33 30 41 40 45 36 37 41 40 36 40 34 32 30 30 31 26 24 24 27 33 32 29
33 35 36 39 37 37 33 29 27 30 28 28 29 32 16 26 28 36 43 36 32 25 34 33 42 41 47 46 36 42 38 40 38 33 32 35 34 32 28 27 26 25 29 27
38 39 41 43 42 39 40 35 36 36 35 35 36 34 30 29 37 40 43 41 32 26 27 37 36 42 47 49 50 40 42 43 44 43 39 39 39 39 32 33 34 32 29 27
43 45 45 43 46 43 42 36 39 45 41 38 40 38 38 34 37 41 36 38 37 31 29 31 40 40 47 52 48 50 47 38 43 45 44 43 44 42 40 40 43 38 34 34
48 46 46 49 45 43 45 38 40 47 47 40 47 38 37 39 37 35 43 44 39 37 34 31 32 38 43 47 53 51 48 49 44 44 44 42 46 46 46 45 47 46 42 42
54 50 49 46 43 46 46 39 43 46 48 34 41 41 32 31 29 24 40 44 43 39 38 37 34 30 37 45 44 50 52 48 49 40 40 43 40 44 47 49 51 53 51 50
50 50 48 44 47 50 43 40 41 41 38 34 38 41 40 36 36 32 29 37 43 43 41 41 39 35 33 37 43 47 45 46 51 53 49 42 41 39 40 44 49 50 51 53
45 46 49 51 48 45 38 38 37 43 44 43 44 45 47 47 47 47 44 42 42 49 50 47 43 40 38 35 34 40 47 48 46 48 52 53 43 40 39 35 39 42 47 46
49 48 48 44 43 40 40 42 42 47 50 49 48 49 50 52 53 52 51 48 46 46 50 53 53 51 46 42 39 36 35 41 49 47 47 48 47 46 41 37 33 31 36 31
47 42 39 43 46 44 43 45 46 42 45 47 47 49 52 53 52 52 54 54 53 52 50 51 54 55 54 51 48 44 41 39 38 46 51 52 49 48 45 37 32 27 23 23
40 36 38 42 48 49 45 41 42 44 49 55 57 59 62 63 62 59 57 55 54 56 55 55 55 54 57 56 54 51 48 45 43 40 41 49 52 51 50 45 35 24 21 33
41 40 44 44 40 41 47 50 50 53 55 62 67 70 68 64 62 63 62 62 60 56 56 60 59 59 58 57 59 58 56 51 48 47 45 42 42 53 53 56 49 48 56 41
Wind_Direction
263 265 266 268 270 271 271 272 274 274 273 273 272 271 268 265 269 266 263 260 265 283 263 257 254 254 255 259 261 268 275 282 283 281 243 220 217 219 223 208 214 211 213 212
267 269 270 270 271 272 273 276 277 275 275 275 277 276 282 279 276 272 263 258 238 215 277 256 251 252 257 262 260 264 270 274 272 273 239 219 220 222 220 213 215 224 230 240
268 267 269 269 271 275 282 282 276 275 276 278 280 300 130 331 322 292 268 268 241 229 275 254 263 257 259 266 267 267 269 267 267 258 225 215 211 228 227 220 233 230 236 241
290 290 286 288 287 287 283 276 279 281 284 296 297 179 187 208 251 343 302 294 259 234 233 253 250 267 269 269 270 269 270 266 266 246 218 214 206 220 227 232 238 241 238 244
61 45 29 359 320 302 296 288 284 273 293 300 304 189 209 218 242 271 273 271 314 268 246 249 251 259 255 264 291 279 264 260 246 226 217 213 214 207 217 230 252 250 263 255
52 41 35 39 36 21 341 306 295 293 313 318 161 194 224 232 238 260 260 265 299 259 207 230 225 206 236 226 280 275 260 264 246 219 212 217 217 212 218 235 254 255 254 261
42 24 21 23 24 34 40 28 343 318 272 197 185 190 204 251 264 264 273 272 277 241 237 230 187 174 222 199 192 242 261 269 245 220 213 217 218 217 216 216 233 247 253 251
29 18 16 11 10 16 25 33 32 24 30 210 289 192 106 315 306 292 268 274 279 211 206 203 170 199 219 230 238 228 244 242 226 219 217 212 212 214 215 230 232 245 252 256
12 7 4 5 4 3 9 12 16 25 38 76 249 103 160 193 276 272 289 274 262 213 196 194 188 181 185 201 210 217 223 219 217 211 224 222 221 216 214 228 228 246 255 267
343 344 349 355 1 3 353 353 354 4 16 33 38 199 219 247 354 272 265 260 244 230 174 193 194 202 218 232 234 222 214 203 214 211 219 227 219 221 214 218 225 232 247 253
326 326 331 339 344 353 352 344 332 338 343 350 9 348 347 325 312 305 302 281 241 232 197 186 239 214 227 235 233 217 215 213 212 217 225 230 226 222 222 224 227 231 238 242
314 317 318 322 326 331 331 329 329 324 315 306 296 311 61 42 286 323 324 289 250 231 227 202 206 236 223 224 221 218 211 225 223 222 228 227 231 226 224 226 229 230 232 235
299 299 302 306 313 313 318 313 314 315 312 303 289 257 214 209 247 285 278 311 281 242 224 215 210 234 223 216 213 221 215 226 227 227 226 224 234 228 222 227 230 233 233 234
295 297 297 299 303 306 308 307 303 306 303 301 289 229 228 259 279 269 267 280 280 254 233 221 222 228 234 223 213 214 219 226 217 228 229 230 236 231 230 232 235 234 233 229
296 297 298 298 300 301 302 300 302 300 296 293 287 275 265 255 267 252 262 272 286 251 241 225 224 228 224 234 233 220 220 224 216 226 228 225 234 231 237 238 235 233 231 233
289 292 296 297 301 304 304 302 304 297 296 290 284 284 269 236 243 257 258 266 270 268 246 245 235 227 226 224 229 237 232 225 230 219 235 235 231 232 237 234 236 243 236 254
289 293 298 299 303 304 301 305 301 297 294 291 291 294 279 265 254 255 253 255 260 265 260 246 247 235 226 226 227 230 237 234 234 236 225 231 233 231 232 232 232 234 239 226
288 296 298 298 299 299 297 302 298 292 291 293 291 290 287 278 271 271 268 259 255 256 257 256 245 245 233 230 233 229 228 230 235 235 236 228 227 234 236 235 240 242 236 236
289 292 292 293 290 289 290 301 292 288 290 298 292 286 285 282 276 266 263 262 255 252 254 253 255 245 244 237 234 240 233 232 236 236 237 238 235 232 234 237 243 248 249 251
288 287 287 285 285 286 290 295 286 285 293 296 282 292 288 281 281 268 255 260 262 256 251 252 249 249 245 241 242 237 240 238 236 238 238 237 237 239 242 242 241 245 253 257
283 285 284 280 285 288 296 287 285 292 287 286 283 287 287 281 277 274 270 261 258 256 255 248 249 245 245 244 241 240 239 237 240 241 241 238 237 237 243 247 249 249 253 258
283 280 284 289 291 292 288 288 288 284 285 284 282 280 278 278 274 272 270 267 266 258 254 253 247 246 246 244 243 242 240 239 236 238 241 240 236 236 240 247 250 252 259 264
283 285 286 287 286 287 289 289 286 285 287 285 284 282 280 276 273 271 270 267 262 261 259 255 253 248 246 245 245 241 242 242 238 237 235 237 237 234 237 238 249 259 258 274
279 283 285 287 285 285 288 285 288 291 289 291 292 290 288 284 278 275 270 265 263 260 255 256 255 255 250 243 243 242 239 239 241 239 234 235 236 234 227 230 242 253 257 276
278 279 281 281 287 293 290 289 289 291 293 294 295 291 290 286 281 277 271 266 262 258 258 255 253 252 252 249 241 241 241 239 236 238 242 239 231 229 229 220 222 235 268 275
282 286 285 285 285 285 293 295 296 295 294 295 296 294 290 284 278 273 271 266 260 257 254 253 252 250 250 250 247 242 239 237 239 238 238 240 238 229 223 221 211 204 215 238
Height
10922 10923 10923 10922 10922 10921 10922 10924 10926 10925 10926 10925 10926 10928 10931 10938 10943 10944 10948 10947 10958 10960 10957 10955 10957 10960 10961 10965 10969 10971 10972 10969 10969 10968 10968 10970 10973 10974 10975 10980 10984 10988 10991 10993
10915 10915 10914 10913 10912 10912 10912 10914 10915 10914 10913 10914 10914 10916 10922 10922 10925 10926 10931 10935 10956 10925 10949 10943 10949 10953 10952 10958 10960 10964 10965 10967 10964 10964 10964 10966 10970 10971 10972 10976 10980 10984 10988 10991
10909 10909 10907 10906 10906 10906 10906 10907 10906 10907 10906 10909 10908 10913 10910 10911 10913 10913 10914 10916 10929 10947 10934 10929 10941 10948 10950 10952 10955 10958 10958 10959 10957 10957 10959 10961 10965 10967 10969 10972 10976 10981 10985 10988
10906 10905 10903 10902 10901 10901 10901 10900 10901 10903 10902 10903 10904 10907 10906 10904 10906 10901 10905 10913 10911 10918 10921 10926 10930 10938 10947 10949 10950 10949 10951 10949 10950 10949 10952 10955 10959 10963 10965 10968 10974 10978 10979 10983
10905 10904 10902 10900 10898 10898 10898 10897 10898 10898 10900 10900 10901 10901 10900 10897 10895 10896 10899 10903 10907 10902 10905 10919 10924 10938 10940 10946 10948 10944 10940 10940 10941 10944 10947 10950 10956 10959 10964 10972 10974 10978 10978 10978
10906 10905 10903 10900 10898 10896 10896 10895 10896 10897 10898 10898 10898 10898 10897 10897 10897 10896 10896 10900 10903 10897 10903 10911 10920 10940 10940 10937 10941 10933 10932 10936 10938 10937 10941 10945 10951 10956 10965 10970 10952 10966 10974 10975
10905 10906 10903 10901 10899 10898 10896 10894 10894 10895 10895 10896 10896 10894 10902 10902 10900 10899 10901 10903 10901 10896 10896 10902 10922 10942 10939 10938 10929 10929 10929 10933 10935 10934 10935 10941 10947 10952 10959 10963 10954 10963 10969 10971
10905 10904 10903 10902 10900 10898 10897 10896 10894 10893 10894 10895 10894 10893 10895 10902 10897 10900 10898 10899 10896 10894 10897 10904 10915 10898 10918 10926 10924 10927 10926 10928 10927 10929 10931 10936 10941 10945 10949 10953 10959 10962 10964 10968
10904 10903 10902 10901 10900 10898 10897 10896 10896 10894 10893 10892 10891 10892 10894 10895 10897 10896 10896 10892 10893 10890 10891 10899 10904 10900 10912 10918 10911 10909 10917 10921 10920 10923 10926 10930 10933 10939 10941 10945 10952 10955 10961 10966
10902 10901 10900 10899 10898 10896 10896 10895 10895 10894 10893 10892 10889 10890 10887 10892 10889 10889 10888 10891 10890 10888 10887 10891 10897 10893 10889 10891 10895 10901 10906 10908 10911 10916 10920 10925 10928 10933 10936 10938 10946 10953 10958 10959
10901 10900 10899 10896 10895 10895 10895 10894 10892 10892 10892 10891 10889 10887 10892 10894 10889 10885 10880 10884 10886 10886 10886 10889 10892 10891 10888 10888 10891 10897 10901 10905 10909 10911 10914 10919 10923 10928 10933 10935 10941 10948 10952 10952
10899 10897 10896 10896 10895 10894 10892 10890 10891 10890 10889 10888 10888 10890 10883 10892 10890 10879 10875 10879 10880 10881 10882 10886 10889 10890 10889 10888 10889 10893 10898 10904 10908 10910 10910 10915 10918 10922 10926 10930 10935 10940 10947 10948
10897 10896 10894 10893 10892 10890 10889 10887 10886 10885 10884 10883 10882 10882 10882 10881 10880 10868 10867 10866 10872 10876 10876 10879 10883 10886 10885 10884 10887 10891 10895 10897 10901 10906 10907 10911 10914 10916 10919 10923 10927 10931 10936 10942
10892 10892 10890 10887 10888 10885 10883 10882 10880 10878 10878 10877 10872 10876 10871 10868 10869 10866 10861 10861 10864 10868 10868 10871 10873 10877 10879 10878 10879 10883 10886 10891 10895 10898 10903 10908 10909 10912 10914 10919 10918 10923 10927 10933
10884 10884 10882 10881 10881 10880 10878 10874 10873 10872 10869 10869 10864 10867 10869 10868 10860 10860 10858 10858 10858 10859 10861 10862 10866 10866 10870 10872 10873 10874 10878 10883 10888 10892 10896 10901 10904 10909 10910 10910 10912 10915 10920 10924
10879 10878 10877 10873 10872 10870 10867 10865 10865 10862 10861 10859 10856 10852 10862 10862 10857 10854 10853 10852 10852 10851 10853 10853 10855 10856 10860 10862 10866 10869 10871 10875 10880 10886 10890 10894 10898 10903 10904 10905 10907 10910 10913 10917
10870 10869 10867 10862 10860 10859 10855 10855 10854 10852 10851 10848 10845 10844 10847 10850 10848 10844 10843 10843 10843 10842 10842 10844 10846 10848 10850 10853 10857 10860 10866 10871 10875 10879 10883 10887 10889 10892 10896 10897 10899 10903 10907 10912
10859 10858 10855 10853 10848 10847 10844 10847 10844 10838 10838 10838 10834 10834 10832 10834 10831 10826 10830 10830 10831 10833 10834 10834 10836 10838 10842 10844 10847 10852 10856 10862 10868 10871 10873 10876 10879 10882 10888 10890 10892 10896 10899 10902
10848 10848 10845 10842 10840 10838 10834 10840 10834 10825 10825 10830 10818 10823 10821 10818 10819 10821 10817 10816 10820 10823 10825 10826 10826 10829 10832 10834 10838 10842 10848 10853 10857 10858 10864 10868 10871 10875 10878 10882 10885 10887 10891 10894
10835 10837 10834 10832 10830 10827 10825 10829 10819 10816 10814 10818 10807 10807 10810 10808 10808 10810 10804 10805 10808 10810 10813 10815 10817 10819 10820 10823 10827 10832 10837 10843 10846 10845 10849 10854 10858 10861 10866 10869 10873 10877 10881 10884
10829 10822 10819 10820 10818 10814 10820 10813 10809 10806 10805 10806 10802 10798 10797 10798 10798 10799 10799 10796 10795 10796 10798 10802 10806 10810 10811 10812 10815 10820 10824 10829 10831 10834 10837 10843 10849 10853 10856 10859 10864 10869 10872 10874
10814 10812 10808 10805 10804 10803 10804 10801 10800 10794 10794 10792 10791 10788 10785 10784 10784 10783 10785 10785 10783 10783 10785 10789 10793 10797 10801 10803 10805 10808 10811 10815 10820 10823 10827 10833 10840 10843 10847 10852 10856 10859 10863 10866
10800 10800 10797 10794 10792 10792 10791 10788 10787 10782 10780 10778 10776 10774 10771 10768 10766 10767 10767 10769 10771 10770 10770 10772 10776 10781 10787 10791 10794 10798 10800 10802 10806 10811 10815 10820 10828 10835 10838 10845 10850 10855 10857 10857
10789 10790 10787 10781 10777 10780 10780 10777 10774 10771 10765 10763 10761 10758 10755 10752 10750 10749 10750 10752 10752 10753 10755 10756 10760 10763 10768 10775 10780 10784 10788 10792 10794 10797 10802 10807 10814 10820 10829 10837 10846 10850 10850 10853
10777 10782 10779 10774 10768 10764 10761 10763 10762 10759 10753 10747 10745 10740 10736 10732 10729 10728 10729 10730 10733 10736 10738 10739 10742 10745 10749 10755 10763 10768 10774 10780 10784 10786 10789 10793 10800 10807 10815 10825 10834 10845 10853 10851
10766 10769 10763 10761 10760 10757 10752 10746 10745 10743 10739 10731 10726 10717 10710 10708 10705 10703 10703 10706 10709 10714 10717 10720 10723 10727 10730 10734 10741 10749 10756 10764 10770 10774 10778 10781 10785 10791 10800 10807 10814 10816 10801 10830